OBJECT A, 69572

Orbit data source: Space-Track

You're viewing an Uncataloged Satellite

Recently launched and/or uncataloged satellites may have evolving metadata. Metadata may include but not limited to: Owner, Maufacturer, Bus, Motor, and Mission.

OBJECT A, 69572 is a satellite owned by Zhongguo Xingwang (CN) in LEO that was launched on Wed, 17 Jun 2026 UTC via a CHANG ZHENG 12 launch vehicle from the Wenchang Satellite Launch Center (WSC). Unknown objects in Earth's orbit typically refer to objects detected orbiting the Earth but have not yet been identified or cataloged. These objects could be anything from previously untracked satellites, spent rocket stages, debris from satellite collisions, or even natural meteoroids temporarily captured by Earth's gravity.

Loading next visibility...
Identifier
69572, 2026-137A
Orbit
LEO
Country
Flag of CNCN / PRC
Related business
Manufacturer
YINNT
Mission
Operational spacecraft
Bus & Motor
XINGWANG Y, Unknown motor
Mass
~800 kg wet, ~800 kg dry
Launch date (UTC)
2026-06-17 (2 days ago)
Launch vehicle
CHANG ZHENG 12
Launch site
Wenchang Satellite Launch Center (WSC)
Object type
Unknown
Shape & HBR
Unknown
Radar Cross Section
RCS unknown

Expand to show TLE details & history
Last TLE update: 22 hours ago

TLE from 22 hours ago
0 OBJECT A
1 69572U 26137A   26169.88165212 -.00000121  00000-0  20220-4 0  9990
2 69572  50.0024 248.6637 0012843 230.8660 129.1099 13.92190562   257
Epoch: 2026-06-18T21:09Z
TLE epoch observation values (Epoch: 2026-06-18T21:09:34.743Z)
Latitude
0.00004°
Longitude
24.15036°
Altitude
927.406 km
Speed
7.386 km/s
True Right ascension
16h 34m 39s
True Declination
0° 00' 00"
Sunlit
Object was in full shadow at epoch
Visualization orbit readout
Latitude
Unknown
Longitude
Unknown
Altitude
Unknown
Speed
Unknown
Apparent Right ascension
Unknown
Apparent Declination
Unknown
Sunlit
N/A
Visualization observer readout
Local Sidereal Time
05:55:17
Azimuth
Unknown
Elevation
Unknown
Doppler factor
Unknown
Orbital elements
Apogee altitude
931.066 km
Perigee altitude
912.316 km
Semi-major axis
7,299.828 km
Eccentricity
0.00128
Inclination
50.0024°
RAAN
248.6637°
Arg. of periapsis
230.866°
True anomaly
129.22398°
Mean anomaly
129.1099°
Eccentric anomaly
129.16695°
Mean motion
3.47996 °/min
Orbital period
103.45 mins
BSTAR
0.00002022
Loading maneuver chart data...
Computing Atmospheric mass density...
Loading historical data...
Loading historical data...
Loading historical data...
Loading historical data...
Loading historical data...
Loading historical data...
Loading historical data...

Documentation

Showing up to 5 results
|